sat.trackr.live / text

‹ back to catalog

SNAP-3 ALICE

NORAD 40970 · 2015-058G

PAYLOAD ACTIVE UNKNOWN

§ Identity

Operator
Country
US
Launch date
2015-10-08
Launch site
AFWTR
Launch vehicle
Mass (kg)
RCS (m²)

Purposes: tech_demo

External: N2YO · Heavens-Above · Gunter

§ Orbital elements

Epoch: 2026-09-18T18:32:30.073056Z

Period
88.08 min
Inclination
64.7226°
Eccentricity
0.0014295
Mean motion
16.34842781 rev/d
Perigee alt
170.2 km
Apogee alt
188.9 km
Semi-major
6,557.7 km
B*
1.2533e-3
RAAN
132.5987°
Arg perigee
258.2988°
Mean anomaly
101.6590°
Rev number
13,163

§ Raw data

SNAP-3 ALICE1 40970U 15058G   26261.77257029  .09547151  76228-5  12533-2 0  99932 40970  64.7226 132.5987 0014295 258.2988 101.6590 16.34842781131637

JSON: /api/v1/satellites/40970 · /tle

For live sub-satellite position, see the globe view (requires WebGL).

§ Visibility from observer

Set your observer location to see the next 7 days of passes ≥ 10°. The values pass through the URL so the page stays shareable.

No JS? Fill the form by hand. The geolocation button needs JavaScript.